Miscellaneous Local Product
Issued by NWS Hastings, NE

Home | Current Version | Previous Version | Graphics & Text | Print | Product List | Glossary On
Versions: 1 2 3 4 5 6 7 8 9 10 11 12 13 14 15 16 17 18 19 20 21 22 23 24 25 26 27 28 29 30 31 32 33 34 35 36 37 38 39 40 41 42 43 44 45 46 47 48 49 50
000
AXUS43 KGID 161102
MISGRI

GID CWA HOURLY WEATHER ROUNDUP
NATIONAL WEATHER SERVICE HASTINGS NE
600 AM CDT TUE SEP 16 2014

NOTE: "FAIR" INDICATES FEW OR NO CLOUDS BELOW 12,000 FEET WITH NO
SIGNIFICANT WEATHER AND/OR OBSTRUCTIONS TO VISIBILITY.

...SOUTH CENTRAL NEBRASKA...

CITY           SKY/WX    TMP DP  RH WIND       PRES   REMARKS
GRAND ISLAND   CLEAR     46  42  86 S7        30.23F
HASTINGS       CLEAR     45  41  86 S7        30.22F
KEARNEY        CLEAR     45  41  87 S5        30.22F
ORD            CLEAR     42  40  92 E5        30.19F
YORK           MIX PCPN  43  41  93 S6        30.24F
AURORA         CLEAR     46  42  88 S6        30.23F
LEXINGTON      CLEAR     47  44  89 S9        30.21S
HOLDREGE       CLEAR     45  42  90 CALM      30.21F
HEBRON         CLEAR     40  38  93 CALM      30.25S

...NEBRASKA PANHANDLE...

CITY           SKY/WX    TMP DP  RH WIND       PRES   REMARKS
CHADRON        CLEAR     49  46  90 S3        30.05F
ALLIANCE       PTCLDY    51  50  96 VRB5      30.08F
SCOTTSBLUFF    MOCLDY    52  51  97 E6        30.08F
SIDNEY         PTCLDY    52  49  89 SW8       30.13S

...WESTERN AND NORTH CENTRAL NEBRASKA...

CITY           SKY/WX    TMP DP  RH WIND       PRES   REMARKS
VALENTINE      CLEAR     50  42  74 S10       30.10F
AINSWORTH      CLEAR     47  42  83 S10       30.12F
ONEILL         CLEAR     45  43  92 S8        30.18F
BROKEN BOW     CLEAR     45  42  89 S9        30.19F
IMPERIAL       PTCLDY    51  48  89 SE7       30.16F
NORTH PLATTE   MOCLDY    50  43  77 S18       30.17F
MCCOOK         PTCLDY    50  44  80 S7        30.20F

...EASTERN NEBRASKA...

CITY           SKY/WX    TMP DP  RH WIND       PRES   REMARKS
NORFOLK        CLEAR     45  42  89 S10       30.22F
SO SIOUX CITY  PTCLDY    39  38  96 E3        30.23S FOG
TEKAMAH        FOG       41  40  96 S3        30.24F VSB 1/2
ALBION         CLEAR     42  39  89 SE5       30.22F
OMAHA EPPLEY   PTCLDY    43  42  97 CALM      30.26F FOG
OFFUTT AFB     FOG       42  42 100 CALM      30.24F VSB 3/4
MILLARD        CLEAR     43  42  97 CALM      30.24F FOG
LINCOLN        CLEAR     40  38  93 CALM      30.26S
NEBRASKA CITY  CLEAR     44  41  89 CALM      30.25S
BEATRICE       CLEAR     40  39  97 CALM      30.25S
FALLS CITY     CLEAR     43  42  97 CALM      30.25F

...NORTHERN KANSAS...

CITY           SKY/WX    TMP DP  RH WIND       PRES   REMARKS
GOODLAND       CLOUDY    58  54  86 S10       30.19F
HILL CITY      MOCLDY    48  45  89 CALM      30.24S
NORTON         SUNNY     48  43  81 SE7       30.21F
PHILLIPSBURG   CLEAR     45  45 100 CALM      30.24S
SMITH CENTER   CLEAR     43  41  93 E5        30.25S
BELOIT         CLEAR     43  43 100 CALM      30.24S
HAYS           CLOUDY    50  45  81 E7        30.23F
RUSSELL        MOCLDY    48  47  96 E6        30.22F
CONCORDIA      CLEAR     45  45 100 CALM      30.25S
SALINA         CLEAR     49  46  90 SE3       30.25S
TOPEKA         FOG       45  44  97 CALM      30.25F VSB 1/2



USA.gov is the U.S. government's official web portal to all federal, state and local government web resources and services.